User: anonymous   Login
Location: Aufkirchen
(47.9603°N, 11.3653°E)
Time: 06:52:37
(UTC+01:00)
Language:

Vanguard 2 - Orbit

View from above orbital plane
View from above orbital plane
View from above satellite
View from above satellite

Ground track
Ground track

The orbit data is extracted from the following two-line orbital elements,

1    11U 59001A   20331.81167829  .00000317  00000-0  17481-3 0  9993
2    11  32.8628 165.8246 1466449  88.0623 288.6675 11.85696657636007
Epoch (UTC): 26 November 2020 19:28:49
Eccentricity: 0.1466449
inclination: 32.8628°
perigee height: 554 km
apogee height: 2937 km
right ascension of ascending node: 165.8246°
argument of perigee: 88.0623°
revolutions per day: 11.85696657
mean anomaly at epoch: 288.6675°
orbit number at epoch: 63600

The dashed part of the orbit path shows where the satellite is in the earth's shadow,  

DLR